{"data":{"norad_id":62168,"epoch":"2026-09-21T18:07:42.884544Z","epoch_age_seconds":73860,"freshness":"FRESH","line1":"1 62168U 24225F   26264.75535746  .00002117  00000+0  18517-3 0  9995","line2":"2 62168  70.0017  30.1049 0002957 266.4284  93.6537 14.98334118 99241","mean_motion":14.98334118,"eccentricity":0.0002957,"inclination_deg":70.0017,"raan_deg":30.1049,"arg_perigee_deg":266.4284,"mean_anomaly_deg":93.6537,"bstar":0.00018517,"rev_number":9924,"period_min":96.106734986595,"perigee_km":569.98798812603,"apogee_km":574.09832467052,"semimajor_km":6950.1801563983,"source":"CELESTRAK","updated_at":"2026-09-22T09:00:49.534926Z"}}